Location: Unspecified
(35.2060°N, 0.0000°E)
Time: 00:46:51
(UTC+00:00)

RS-15 - Visible Passes

Search period start: 04 April 2026 00:00
Search period end: 14 April 2026 00:00
Orbit: 1893 x 2151 km, 64.8° (Epoch: 29 March)

Date Brightness Start Highest point End Pass type
(mag) Time Alt. Az. Time Alt. Az. Time Alt. Az.
4 Apr 7.9 02:05:01 10° NNW 02:16:45 82° WSW 02:28:56 10° SSE visible
4 Apr 9.1 04:20:50 10° WNW 04:36:31 - SW 04:25:17 16° W visible
4 Apr 9.9 18:40:15 10° W 18:48:54 26° NW 18:57:49 10° NNE visible
4 Apr 10.0 21:03:20 10° NNW 21:07:23 12° N 21:11:30 10° NNE visible
4 Apr 9.5 23:17:17 10° NNW 23:26:12 24° NE 23:33:35 14° E visible
5 Apr 8.0 01:28:56 10° NNW 01:40:41 80° ENE 01:41:11 79° E visible
5 Apr 9.0 03:43:09 10° NW 04:04:23 - SSW 03:48:49 22° W visible
5 Apr 10.0 20:25:24 10° NNW 20:29:52 13° N 20:34:24 10° NNE visible
5 Apr 9.7 22:41:21 10° NNW 22:49:11 20° NNE 22:57:12 10° ENE visible
6 Apr 8.2 00:52:56 10° NNW 01:04:31 64° ENE 01:05:13 63° ENE visible
6 Apr 8.8 03:06:12 10° NW 03:12:53 30° WNW 03:12:53 30° WNW visible
6 Apr 10.0 19:47:02 10° NW 19:52:25 14° NNW 19:57:56 10° NNE visible
6 Apr 9.8 22:05:21 10° NNW 22:12:00 16° NNE 22:18:47 10° ENE visible
7 Apr 8.5 00:16:59 10° NNW 00:28:12 50° NE 00:29:32 49° ENE visible
7 Apr 8.5 02:29:36 10° NW 02:37:13 39° WNW 02:37:13 39° WNW visible
7 Apr 9.9 19:08:38 10° WNW 19:15:07 17° NNW 19:21:46 10° NNE visible
7 Apr 9.9 21:29:11 10° NNW 21:34:39 14° NNE 21:40:12 10° NE visible
7 Apr 8.8 23:41:04 10° NNW 23:51:46 40° NE 23:54:02 37° ENE visible
8 Apr 8.3 01:53:15 10° NW 02:01:43 51° WNW 02:01:43 51° WNW visible
8 Apr 9.9 20:52:40 10° NNW 20:57:10 13° N 21:01:44 10° NNE visible
8 Apr 9.1 23:05:10 10° NNW 23:15:09 32° NE 23:18:39 27° ENE visible
9 Apr 8.2 01:17:03 10° NNW 01:26:20 63° NW 01:26:20 63° NW visible
9 Apr 9.5 03:33:12 10° WNW 03:34:03 11° WNW 03:34:03 11° WNW visible
9 Apr 10.0 20:15:34 10° NNW 20:19:38 12° N 20:23:45 10° NNE visible
9 Apr 9.4 22:29:16 10° NNW 22:38:21 25° NE 22:43:21 20° ENE visible
10 Apr 8.1 00:40:57 10° NNW 00:51:03 71° N 00:51:03 71° N visible
10 Apr 9.3 02:55:21 10° NW 02:58:46 18° WNW 02:58:46 18° WNW visible
10 Apr 10.0 19:37:43 10° NNW 19:42:06 13° N 19:46:33 10° NNE visible
10 Apr 9.6 21:53:21 10° NNW 22:01:22 20° NNE 22:08:08 13° ENE visible
11 Apr 8.2 00:04:56 10° NNW 00:15:51 65° NE 00:15:51 65° NE visible
11 Apr 9.1 02:18:19 10° NW 02:23:33 25° WNW 02:23:33 25° WNW visible
11 Apr 10.0 18:59:23 10° NW 19:04:38 14° NNW 19:10:00 10° NNE visible
11 Apr 9.7 21:17:22 10° NNW 21:24:12 17° NNE 21:31:10 10° ENE visible
11 Apr 8.4 23:28:59 10° NNW 23:40:17 52° NE 23:40:42 52° ENE visible
12 Apr 8.8 01:41:41 10° NW 01:48:24 35° WNW 01:48:24 35° WNW visible
12 Apr 9.8 20:41:13 10° NNW 20:46:52 14° NNE 20:52:36 10° NE visible
12 Apr 8.7 22:53:04 10° NNW 23:03:51 41° NE 23:05:35 39° ENE visible
13 Apr 8.5 01:05:18 10° NW 01:13:18 47° WNW 01:13:18 47° WNW visible
13 Apr 9.9 20:04:46 10° NNW 20:09:24 13° N 20:14:07 10° NE visible
13 Apr 9.0 22:17:10 10° NNW 22:27:16 33° NE 22:30:32 29° ENE visible
